Flag for Bermuda Weather past 2 weeks in Hamilton, Bermuda

Now
64 °F

Scattered showers. Overcast.


Feels Like: 64 °F
Forecast: 57 / 66 °F
Wind: 24 mph from Southwest

Location: Bermuda

Current Time: Jan 30, 2015 at 9:52:26 PM

Latest Report: Jan 30, 2015 at 8:55 PM


Visibility: N/A

Pressure: 29.92 "Hg

Humidity: 64%

Dew point: 52 °F

Location of HamiltonLocation

Historic Weather in Hamilton — Graph

°F

Hamilton temperature yesterday

Maximum temperature yesterday: 63 °F (at 3:55 AM)
Minimum temperature yesterday: 59 °F (at 2:55 AM)
Average temperature yesterday: 61 °F

Past Weeks' High & Low Weather Summary

 TemperatureHumidityPressure
High73 °F (Jan 27, 11:55 AM)94% (Jan 25, 5:55 AM)30.33 "Hg (Jan 25, 5:55 AM)
Low57 °F (Jan 18, 6:55 AM)46% (Jan 18, 10:55 AM)29.62 "Hg (Jan 27, 3:55 AM)
Average66 °F66%29.98 "Hg
* Reported Jan 15 8:55 PM — Jan 30 8:55 PM, Hamilton, Weather by CustomWeather, © 2014

Note: Actual official high and low records may vary slightly from our data, if they occured in-between our weather recording intervals... More about our weather records

Advertising

Hamilton weather history for previous 24 hours

 ConditionsComfort  
Time TempWeatherWind HumidityBarometerVisibility
8:55 PM
Jan 30
64 °FScattered showers. Overcast.24 mph64%29.92 "HgN/A
7:55 PM64 °FMostly cloudy.21 mph60%29.92 "HgN/A
6:55 PM64 °FMostly cloudy.17 mph60%29.95 "HgN/A
5:55 PM64 °FMostly cloudy.14 mph56%29.95 "HgN/A
4:55 PM64 °FBroken clouds.16 mph56%29.98 "HgN/A
3:55 PM64 °FPartly sunny.10 mph52%29.98 "HgN/A
2:55 PM64 °FPartly sunny.6 mph60%30.01 "HgN/A
1:55 PM63 °FPartly sunny.3 mph64%30.01 "HgN/A
12:55 PM63 °FBroken clouds.6 mph64%30.04 "HgN/A
11:55 AM64 °FBroken clouds.3 mph56%30.07 "HgN/A
10:55 AM64 °FBroken clouds.2 mph56%30.09 "HgN/A
8:55 AM63 °FPartly sunny.7 mph59%30.09 "HgN/A
7:55 AM61 °FScattered showers. Broken clouds.7 mph63%30.09 "HgN/A
6:55 AM61 °FPartly cloudy.8 mph59%30.07 "HgN/A
5:55 AM61 °FPassing clouds.9 mph59%30.07 "HgN/A
4:55 AM61 °FPassing clouds.9 mph55%30.07 "HgN/A
3:55 AM61 °FPassing clouds.8 mph59%30.07 "HgN/A
2:55 AM61 °FPassing clouds.9 mph55%30.07 "HgN/A
1:55 AM61 °FPassing clouds.13 mph59%30.09 "HgN/A
12:55 AM61 °FPassing clouds.14 mph55%30.09 "HgN/A
11:55 PM
Jan 29
61 °FPartly cloudy.14 mph63%30.09 "HgN/A
10:55 PM61 °FSprinkles. Partly cloudy.15 mph68%30.09 "HgN/A
9:55 PM61 °FScattered showers. Passing clouds.13 mph59%30.09 "HgN/A
Weather by CustomWeather, © 2014

See weather overviewHow to use our weather pages